Simultaneous Nadir Overpasses (SNOs) Predictions

Prediction of SNOs between GOES-14 and NOAA-20 Satellite Orbit:

Table of predicted SNOs for the next 14.0 days since TLE Epoch: 10/22/2022
Index Date Time (GOES-14) GOES-14 Lat,Lon NOAA-20 Lat,Lon Distance(km) Time Diff (sec)
1 10/22/2022 08:11:21 0.18,-104.33 -0.34,-102.02 263.43 80
2 10/23/2022 20:33:18 -0.15,-104.22 -0.84,-107.33 354.20 80
3 10/24/2022 20:17:12 -0.16,-104.23 0.14,-102.79 163.49 80
4 10/26/2022 08:39:00 0.13,-104.36 0.97,-108.07 423.61 80
5 10/27/2022 08:17:35 0.16,-104.33 -0.00,-103.53 91.16 80
6 10/29/2022 20:20:46 -0.14,-104.17 -0.19,-104.30 14.79 80
7 11/01/2022 08:26:30 0.11,-104.32 0.26,-105.05 83.65 80
8 11/02/2022 08:05:04 0.13,-104.29 -0.73,-100.52 430.94 80
9 11/03/2022 20:26:59 -0.10,-104.11 -0.49,-105.81 193.82 80
10 11/04/2022 20:10:54 -0.11,-104.12 0.50,-101.27 323.71 80
